PDT,Max TemperatureF,Mean TemperatureF,Min TemperatureF,Max Dew PointF,MeanDew PointF,Min DewpointF,Max Humidity, Mean Humidity, Min Humidity, Max Sea Level PressureIn, Mean Sea Level PressureIn, Min Sea Level PressureIn, Max VisibilityMiles, Mean VisibilityMiles, Min VisibilityMiles, Max Wind SpeedMPH, Mean Wind SpeedMPH, Max Gust SpeedMPH,PrecipitationIn, CloudCover, Events, WindDirDegrees
2013-5-1,70,52,34,38,34,30,89,59,28,30.53,30.47,30.43,10,10,10,15,3,20,0.00,0,,86
2013-5-2,81,66,50,39,34,29,59,40,21,30.45,30.33,30.23,10,10,10,24,10,29,0.00,0,,80
2013-5-3,80,61,42,46,41,34,89,57,25,30.30,30.21,30.12,10,10,10,12,4,17,0.00,0,,283
2013-5-4,82,63,43,47,39,30,92,55,17,30.13,30.02,29.90,10,10,10,24,6,32,0.00,0,,76
2013-5-5,84,65,45,47,42,35,82,51,20,29.89,29.80,29.69,10,10,10,22,6,32,0.00,0,,79
2013-5-6,84,66,47,51,47,44,83,57,30,29.88,29.81,29.72,10,10,10,9,3,14,0.00,0,,269
2013-5-7,77,64,50,53,48,45,83,61,38,30.02,29.95,29.90,10,10,10,10,3,13,0.00,0,,265
2013-5-8,69,60,50,53,49,46,89,71,53,30.15,30.10,30.04,10,10,10,8,2,12,0.00,4,,194
2013-5-9,78,64,50,55,51,46,89,66,43,30.20,30.15,30.05,10,10,8,7,1,9,0.00,3,,262
2013-5-10,84,67,49,57,52,46,93,61,28,30.19,30.14,30.08,10,9,1,9,2,13,0.00,0,,286
2013-5-11,85,71,57,56,53,50,80,57,34,30.18,30.08,29.98,10,10,10,8,2,13,0.00,0,,288
2013-5-12,70,64,58,61,57,55,90,78,66,30.12,30.09,30.06,10,9,2,10,2,15,0.11,7,Rain,86
2013-5-13,70,61,51,57,52,40,90,68,45,30.22,30.09,30.04,10,9,3,26,7,35,0.06,6,Rain,196
2013-5-14,67,56,44,44,40,31,92,61,29,30.23,30.17,30.10,10,10,10,9,2,14,0.00,1,,285
2013-5-15,60,54,48,52,47,41,93,78,62,30.11,30.07,30.03,10,10,6,12,2,14,0.02,7,Rain,101
2013-5-16,69,62,54,54,52,49,93,73,52,30.02,29.96,29.92,10,10,8,21,4,25,0.19,8,Rain,123
2013-5-17,65,58,51,51,47,44,93,73,52,30.10,30.03,29.99,10,10,6,14,4,17,0.03,8,Rain,196
2013-5-18,58,55,52,52,50,46,93,80,67,30.28,30.18,30.10,10,10,4,9,2,15,0.18,8,Rain,214
2013-5-19,67,59,51,52,48,44,93,71,48,30.40,30.35,30.28,10,10,10,9,3,15,0.00,7,,287
2013-5-20,72,60,47,49,45,38,86,59,31,30.35,30.17,29.90,10,10,10,9,2,13,0.00,4,,46
2013-5-21,58,52,45,47,44,40,86,74,62,29.98,29.89,29.82,10,8,2,17,8,24,0.59,8,Rain,232
2013-5-22,50,47,44,45,41,37,93,85,76,29.98,29.95,29.94,10,9,6,16,9,26,0.88,8,Rain,200
2013-5-23,54,50,46,48,45,43,93,85,77,30.03,30.00,29.96,10,9,4,13,5,20,0.73,8,Rain,119
2013-5-24,61,55,48,49,46,43,93,74,55,30.09,30.03,29.98,10,9,4,18,6,24,0.32,8,Rain,168
2013-5-25,69,60,50,49,46,40,89,62,35,30.07,30.02,29.92,10,10,10,10,2,14,T,6,,338
2013-5-26,65,60,54,52,50,46,93,73,52,30.03,29.99,29.95,10,9,2,17,6,23,0.10,8,Rain,204
2013-5-27,64,58,51,55,52,46,93,83,72,29.99,29.81,29.75,10,8,5,17,7,23,1.30,7,Rain,94
2013-5-28,66,60,53,50,48,43,83,66,48,29.94,29.88,29.78,10,10,6,17,6,25,0.11,8,Rain,211
2013-5-29,65,59,52,51,49,44,93,73,52,30.06,29.82,29.65,10,10,6,23,8,35,0.27,8,Rain,219
2013-5-30,63,56,49,50,46,43,89,69,48,30.25,30.15,30.07,10,10,8,17,2,22,0.02,8,Rain,225
2013-5-31,69,60,50,50,46,40,89,63,37,30.33,30.28,30.22,10,10,10,10,2,13,T,3,,330